STARLINK-11289, 60991

Orbit data source: Space-Track

STARLINK-11289, 60991 is a payload satellite owned by SpaceX/Seattle (US) in LEO that was launched on Thu, 05 Sep 2024 UTC via an FALCON 9 launch vehicle from the Air Force Eastern Test Range (AFETR). Payload-class satellites include a variety of spacecraft equipped with specific instruments for various scientific and technological missions. These include communications satellites like Starlink; space stations such as the ISS; scientific satellites like the Hubble; Earth observation satellites from companies like Planet Labs, Umbra, and HawkEye 360; GPS; miniature CubeSats for education and research; and military/defense satellites.

Loading next visibility...
Identifier
60991, 2024-158B
Orbit
LEO
Country
Flag of USUS
Related business
Manufacturer
SpaceX/Seattle
Mission
Operational Commercial Communications
Bus & Motor
STARLINK V2MD, Unknown motor
Mass
960 kg wet, ~910 kg dry
Launch date (UTC)
2024-09-05 (1 year ago)
Launch vehicle
FALCON 9
Launch site
Air Force Eastern Test Range (AFETR)
Object type
Payload
Rocket body
Debris
Shape & HBR
Box + 2 Pan, 18.1 m
Radar Cross Section
36.964 m², Large (>1 m²)

Expand to show TLE details & history
Last TLE update: 14 hours ago

TLE from 14 hours ago
0 STARLINK-11289
1 60991U 24158B   25289.26308290 -.00001204  00000-0 -50766-5 0  9999
2 60991  53.1585 273.0282 0001620  50.2283 309.8877 15.69696405 64910
Epoch: 2025-10-16T06:18Z
TLE epoch observation values (Epoch: 2025-10-16T06:18:50.362Z)
Latitude
-0.00006°
Longitude
153.293°
Altitude
359.981 km
Speed
7.695 km/s
True Right ascension
18h 12m 06s
True Declination
0° 00' 00"
Sunlit
Object was in daylight at epoch
Visualization orbit readout
Latitude
Unknown
Longitude
Unknown
Altitude
Unknown
Speed
Unknown
Apparent Right ascension
Unknown
Apparent Declination
Unknown
Sunlit
N/A
Visualization observer readout
Local Sidereal Time
14:44:52
Azimuth
Unknown
Elevation
Unknown
Doppler factor
Unknown
Orbital elements
Apogee altitude
361.118 km
Perigee altitude
358.935 km
Semi-major axis
6,738.164 km
Eccentricity
0.00016
Inclination
53.1585°
RAAN
273.0282°
Arg. of periapsis
50.2283°
True anomaly
309.87345°
Mean anomaly
309.8877°
Eccentric anomaly
309.88058°
Mean motion
3.92402 °/min
Orbital period
91.74 mins
BSTAR
-0.0000050766
Loading maneuver chart data...
Computing Atmospheric mass density...
Loading historical data...
Loading historical data...
Loading historical data...
Loading historical data...
Loading historical data...
Loading historical data...
Loading historical data...

Documentation

Showing up to 5 results
|